sat.trackr.live / text

‹ back to catalog

STARLINK-30433

NORAD 57878 · 2023-144Q

PAYLOAD ACTIVE UNKNOWN

§ Identity

Operator
Country
US
Launch date
2023-09-16
Launch site
AFETR
Launch vehicle
Mass (kg)
RCS (m²)

Purposes: comms

External: N2YO · Heavens-Above · Gunter

§ Orbital elements

Epoch: 2026-05-25T04:56:04.862112Z

Period
94.27 min
Inclination
42.9982°
Eccentricity
0.0000953
Mean motion
15.27561365 rev/d
Perigee alt
482.5 km
Apogee alt
483.8 km
Semi-major
6,861.2 km
B*
-4.3458e-5
RAAN
212.7306°
Arg perigee
279.4007°
Mean anomaly
80.6737°
Rev number
14,934

§ Raw data

STARLINK-304331 57878U 23144Q   26145.20561183 -.00001457  00000+0 -43458-4 0  99992 57878  42.9982 212.7306 0000953 279.4007  80.6737 15.27561365149341

JSON: /api/v1/satellites/57878 · /tle

For live sub-satellite position, see the globe view (requires WebGL).

§ Visibility from observer

Set your observer location to see the next 7 days of passes ≥ 10°. The values pass through the URL so the page stays shareable.

No JS? Fill the form by hand. The geolocation button needs JavaScript.